Home > Time Zones > World Clock > Weather > India > Churu > Past weeks

Flag for India Weather past 2 weeks in Churu, Rajasthan, India

Now
81 °F

Fog.


Feels Like: 86 °F
Forecast: 78 / 97 °F
Wind: 8 mph from West

Location: Jaipur / Sanganer

Current Time: Jul 3, 2015 at 3:03:15 AM

Latest Report: Jul 3, 2015 at 1:00 AM


Visibility: 2 mi

Pressure: 29.71 "Hg

Humidity: 84%

Dew point: 75 °F

Location of ChuruLocation

Historic Weather in Churu — Graph

°F

Churu temperature yesterday

Maximum temperature yesterday: 93 °F (at 2:00 PM)
Minimum temperature yesterday: 79 °F (at 3:00 AM)
Average temperature yesterday: 83 °F

Past Weeks' High & Low Weather Summary

 TemperatureHumidityPressure
High106 °F (Jun 19, 12:30 PM)100% (Jun 25, 3:00 AM)29.77 "Hg (Jun 25, 3:00 AM)
Low75 °F (Jun 29, 9:00 PM)20% (Jun 19, 5:00 PM)29.39 "Hg (Jun 22, 5:30 PM)
Average90 °F58%29.56 "Hg
* Reported Jun 18 1:00 AM — Jul 3 1:00 AM, Churu, Weather by CustomWeather, © 2015

Note: Actual official high and low records may vary slightly from our data, if they occured in-between our weather recording intervals... More about our weather records

Advertising

Churu weather history for previous 24 hours

 ConditionsComfort  
Time TempWeatherWind HumidityBarometerVisibility
1:00 AM
Fri, Jul 3
81 °FFog.8 mph84%29.71 "Hg1 mi
12:00 AM82 °FFog.5 mph79%29.71 "Hg1 mi
11:00 PM
Thu, Jul 2
81 °FFog.No wind84%29.71 "Hg1 mi
9:30 PM82 °FPassing clouds.5 mph74%29.71 "Hg1 mi
9:00 PM82 °FPassing clouds.5 mph79%29.71 "Hg1 mi
8:30 PM82 °FPartly cloudy.6 mph74%29.68 "Hg1 mi
7:00 PM82 °FBroken clouds.9 mph79%29.68 "Hg1 mi
6:00 PM82 °FBroken clouds.7 mph79%29.68 "Hg1 mi
5:00 PM79 °FThunderstorms. More clouds than sun.3 mph89%29.68 "Hg1 mi
3:00 PM86 °FScattered clouds.13 mph66%29.71 "Hg1 mi
2:00 PM93 °FScattered clouds.13 mph56%29.71 "Hg1 mi
1:00 PM91 °FHaze.12 mph59%29.74 "Hg1 mi
12:00 PM91 °FHaze.12 mph63%29.74 "Hg1 mi
11:00 AM90 °FHaze.8 mph59%29.74 "Hg1 mi
10:00 AM88 °FHaze.8 mph66%29.74 "Hg1 mi
9:00 AM86 °FHaze.7 mph70%29.74 "Hg1 mi
8:00 AM82 °FFog.6 mph74%29.74 "Hg1 mi
7:00 AM81 °FFog.3 mph79%29.71 "Hg1 mi
6:30 AM81 °FFog.3 mph79%29.71 "Hg1 mi
6:00 AM79 °FFog.3 mph84%29.71 "Hg1 mi
5:00 AM79 °FFog.3 mph89%29.71 "Hg1 mi
4:00 AM79 °FFog.5 mph89%29.71 "Hg1 mi
3:00 AM79 °FFog.7 mph84%29.71 "Hg1 mi
Weather by CustomWeather, © 2015

See weather overviewHow to use our weather pages